カタログに戻る

COSMOS 1360

運用中軍事LEO
NORAD 13163·PAYLOAD·🇷🇺 Russia

打ち上げ May 6, 1982 から Plesetsk Cosmodrome

Loading…

次のパス (今後24時間)

TLE

最新Source: Space-Track

元期: Sep 14, 2026, 06:50 UTC

1 13163U 82040D   26257.28505323 -.00000003  00000-0  88125-4 0  9990
2 13163  74.0125 187.0627 0023572 288.2666 227.7814 12.50200650748914

AllMySatでCOSMOS 1360をリアルタイム追跡

Download on the App Store